DAL886 KTUS-KATL

Flight info

Callsign DAL886
Flight time N/A
Altitude 35000
Route WLDKT4 SSO J50 ALIBY EWM LBB ADM LIT MEMFS HUTCC KNSAW RUSSA GLAVN2
Aircraft B739/M-SDE2E3FGHIRWXY/LB1

Departure

Time 2026-05-05 17:57
Airport Tucson International Airport (KTUS)

Arrival

Time N/A
Airport Hartsfield Jackson Atlanta International Airport (KATL)
Time Latitude Longitude Altitude Speed Heading
2026-05-05 17:24 32.12026 -110.93923 2609 ft 0 kts 52°
2026-05-05 17:47 32.12024 -110.93926 2609 ft 3 kts 52°
2026-05-05 17:48 32.12007 -110.93951 2608 ft 4 kts 52°
2026-05-05 17:48 32.11991 -110.93976 2608 ft 4 kts 52°
2026-05-05 17:48 32.11982 -110.93989 2607 ft 0 kts 52°
2026-05-05 17:50 32.11980 -110.93983 2608 ft 1 kts 111°
2026-05-05 17:51 32.11952 -110.93953 2609 ft 9 kts 139°
2026-05-05 17:51 32.11883 -110.93958 2609 ft 11 kts 214°
2026-05-05 17:51 32.11811 -110.93929 2610 ft 13 kts 135°
2026-05-05 17:51 32.11747 -110.93853 2613 ft 13 kts 135°
2026-05-05 17:52 32.11678 -110.93773 2616 ft 15 kts 135°
2026-05-05 17:52 32.11604 -110.93686 2619 ft 15 kts 135°
2026-05-05 17:52 32.11530 -110.93598 2622 ft 16 kts 135°
2026-05-05 17:52 32.11450 -110.93505 2625 ft 16 kts 135°
2026-05-05 17:53 32.11372 -110.93413 2628 ft 16 kts 135°
2026-05-05 17:53 32.11288 -110.93314 2630 ft 17 kts 135°
2026-05-05 17:53 32.11193 -110.93203 2633 ft 20 kts 135°
2026-05-05 17:53 32.11093 -110.93087 2635 ft 21 kts 135°
2026-05-05 17:54 32.10991 -110.92966 2638 ft 21 kts 135°
2026-05-05 17:54 32.10886 -110.92843 2640 ft 21 kts 135°
2026-05-05 17:54 32.10776 -110.92715 2643 ft 23 kts 135°
2026-05-05 17:54 32.10665 -110.92585 2645 ft 22 kts 135°
2026-05-05 17:55 32.10554 -110.92455 2648 ft 23 kts 135°
2026-05-05 17:55 32.10443 -110.92325 2651 ft 22 kts 135°
2026-05-05 17:55 32.10358 -110.92225 2653 ft 14 kts 135°
2026-05-05 17:55 32.10283 -110.92201 2657 ft 13 kts 222°
2026-05-05 17:56 32.10221 -110.92274 2655 ft 6 kts 225°
2026-05-05 17:56 32.10229 -110.92317 2657 ft 6 kts 314°
2026-05-05 17:56 32.10277 -110.92374 2649 ft 24 kts 315°
2026-05-05 17:56 32.10554 -110.92699 2642 ft 87 kts 315°
2026-05-05 17:57 32.11113 -110.93355 2629 ft 138 kts 315°
2026-05-05 17:57 32.11899 -110.94276 2626 ft 176 kts 315°
2026-05-05 17:57 32.12777 -110.95314 3122 ft 181 kts 315°
2026-05-05 17:57 32.13697 -110.96381 3618 ft 185 kts 314°
2026-05-05 17:58 32.14617 -110.97469 4060 ft 196 kts 313°
2026-05-05 17:58 32.15633 -110.98680 4217 ft 217 kts 312°
2026-05-05 17:58 32.16754 -111.00004 4351 ft 238 kts 311°
2026-05-05 17:58 32.17944 -111.01409 4737 ft 248 kts 311°
2026-05-05 17:59 32.19227 -111.02924 4966 ft 270 kts 311°
2026-05-05 17:59 32.20635 -111.04400 5662 ft 274 kts 326°
2026-05-05 17:59 32.22468 -111.05073 6246 ft 286 kts 356°
2026-05-05 17:59 32.24397 -111.04598 6815 ft 293 kts 27°
2026-05-05 18:00 32.26051 -111.03161 7420 ft 298 kts 41°
2026-05-05 18:00 32.27626 -111.01524 7953 ft 306 kts 41°
2026-05-05 18:00 32.29214 -110.99807 8539 ft 311 kts 50°
2026-05-05 18:00 32.30266 -110.97603 9177 ft 308 kts 77°
2026-05-05 18:01 32.30642 -110.95120 9798 ft 309 kts 89°
2026-05-05 18:01 32.30825 -110.92561 10267 ft 319 kts 91°
2026-05-05 18:01 32.30978 -110.89856 10404 ft 340 kts 91°
2026-05-05 18:01 32.31141 -110.86985 10563 ft 360 kts 90°
2026-05-05 18:02 32.31325 -110.83970 10828 ft 375 kts 90°
2026-05-05 18:02 32.31531 -110.80862 11292 ft 382 kts 89°
2026-05-05 18:02 32.31745 -110.77697 11769 ft 390 kts 89°
2026-05-05 18:02 32.31970 -110.74481 12342 ft 394 kts 89°
2026-05-05 18:03 32.32199 -110.71238 12958 ft 397 kts 90°
2026-05-05 18:03 32.32430 -110.67954 13434 ft 404 kts 90°
2026-05-05 18:03 32.32661 -110.64621 13924 ft 409 kts 90°
2026-05-05 18:03 32.32892 -110.61251 14380 ft 413 kts 90°
2026-05-05 18:04 32.33114 -110.57842 14858 ft 417 kts 91°
2026-05-05 18:04 32.33130 -110.54404 15312 ft 420 kts 97°
2026-05-05 18:04 32.32984 -110.50943 15747 ft 423 kts 99°
2026-05-05 18:04 32.32781 -110.47457 16235 ft 427 kts 99°
2026-05-05 18:05 32.32571 -110.43938 16680 ft 431 kts 98°
2026-05-05 18:05 32.32438 -110.41581 16972 ft 434 kts 98°
2026-05-05 18:05 32.32189 -110.36816 17552 ft 441 kts 98°
2026-05-05 18:05 32.32015 -110.33183 17991 ft 445 kts 97°
2026-05-05 18:06 32.31847 -110.29498 18411 ft 450 kts 97°
2026-05-05 18:06 32.31791 -110.28245 18542 ft 451 kts 97°
2026-05-05 18:06 32.31583 -110.23251 19084 ft 457 kts 97°
2026-05-05 18:06 32.31438 -110.19543 19486 ft 460 kts 98°
2026-05-05 18:07 32.31267 -110.15754 19896 ft 463 kts 98°
2026-05-05 18:07 32.31086 -110.11935 20294 ft 466 kts 98°
2026-05-05 18:07 32.30903 -110.08099 20726 ft 469 kts 99°
2026-05-05 18:07 32.30720 -110.04230 21039 ft 475 kts 99°
2026-05-05 18:08 32.30534 -110.00313 21381 ft 480 kts 99°
2026-05-05 18:08 32.30348 -109.96375 21821 ft 480 kts 99°
2026-05-05 18:08 32.30163 -109.92420 22106 ft 485 kts 99°
2026-05-05 18:08 32.29975 -109.88413 22335 ft 491 kts 99°
2026-05-05 18:09 32.29784 -109.84367 22676 ft 494 kts 100°
2026-05-05 18:09 32.29592 -109.80305 23034 ft 496 kts 100°
2026-05-05 18:09 32.29397 -109.76214 23331 ft 501 kts 101°
2026-05-05 18:09 32.29197 -109.72081 23552 ft 507 kts 101°
2026-05-05 18:10 32.28994 -109.67916 23827 ft 508 kts 101°
2026-05-05 18:10 32.28793 -109.63748 24231 ft 507 kts 101°
2026-05-05 18:10 32.28591 -109.59581 24513 ft 509 kts 101°
2026-05-05 18:10 32.28377 -109.55381 24679 ft 514 kts 101°
2026-05-05 18:11 32.28160 -109.51145 24935 ft 516 kts 101°
2026-05-05 18:11 32.27951 -109.46914 25293 ft 516 kts 101°
2026-05-05 18:11 32.27739 -109.42664 25557 ft 518 kts 101°
2026-05-05 18:11 32.27523 -109.38405 25807 ft 520 kts 101°
2026-05-05 18:12 32.27307 -109.34181 26070 ft 523 kts 101°
2026-05-05 18:12 32.27086 -109.29889 26327 ft 525 kts 101°
2026-05-05 18:12 32.26816 -109.25577 26581 ft 522 kts 106°
2026-05-05 18:12 32.26106 -109.21411 26829 ft 515 kts 113°
2026-05-05 18:13 32.25164 -109.17337 27098 ft 513 kts 116°
2026-05-05 18:13 32.24144 -109.13282 27349 ft 515 kts 116°
2026-05-05 18:13 32.23113 -109.09227 27581 ft 517 kts 116°
2026-05-05 18:13 32.22097 -109.05140 27855 ft 519 kts 115°
2026-05-05 18:14 32.21107 -109.01031 28093 ft 521 kts 115°
2026-05-05 18:14 32.20137 -108.96901 28349 ft 523 kts 114°
2026-05-05 18:14 32.19176 -108.92747 28580 ft 525 kts 114°
2026-05-05 18:14 32.18219 -108.88583 28820 ft 527 kts 114°
2026-05-05 18:15 32.17262 -108.84411 29135 ft 526 kts 114°
2026-05-05 18:15 32.16306 -108.80252 29524 ft 524 kts 114°
2026-05-05 18:15 32.15350 -108.76109 29907 ft 523 kts 114°
2026-05-05 18:15 32.14391 -108.71973 30297 ft 523 kts 115°
2026-05-05 18:16 32.13440 -108.67890 30540 ft 523 kts 115°
2026-05-05 18:16 32.12474 -108.63754 30795 ft 523 kts 115°
2026-05-05 18:16 32.11506 -108.59616 31051 ft 523 kts 115°
2026-05-05 18:16 32.10539 -108.55484 31304 ft 523 kts 115°
2026-05-05 18:17 32.09570 -108.51352 31553 ft 523 kts 115°
2026-05-05 18:17 32.08599 -108.47217 31785 ft 522 kts 116°
2026-05-05 18:17 32.07629 -108.43088 32002 ft 522 kts 116°
2026-05-05 18:17 32.06660 -108.38969 32305 ft 520 kts 116°
2026-05-05 18:18 32.05694 -108.34866 32642 ft 517 kts 116°
2026-05-05 18:18 32.04732 -108.30786 32941 ft 516 kts 116°
2026-05-05 18:18 32.03771 -108.26725 33211 ft 515 kts 117°
2026-05-05 18:18 32.02806 -108.22660 33447 ft 515 kts 117°
2026-05-05 18:19 32.01839 -108.18593 33644 ft 515 kts 117°
2026-05-05 18:19 32.00868 -108.14515 33800 ft 516 kts 117°
2026-05-05 18:19 31.99894 -108.10433 33944 ft 518 kts 117°
2026-05-05 18:19 31.98920 -108.06348 34073 ft 519 kts 117°
2026-05-05 18:20 31.97954 -108.02302 34218 ft 519 kts 117°
2026-05-05 18:20 31.96963 -107.98154 34390 ft 519 kts 117°
2026-05-05 18:20 31.95985 -107.94065 34559 ft 519 kts 117°
2026-05-05 18:20 31.95016 -107.90024 34696 ft 520 kts 117°
2026-05-05 18:21 31.94020 -107.85875 34811 ft 520 kts 117°
2026-05-05 18:21 31.92287 -107.77630 34849 ft 532 kts 108°
2026-05-05 18:21 31.92030 -107.73248 34838 ft 544 kts 97°
2026-05-05 18:22 31.92149 -107.68788 34889 ft 544 kts 96°
2026-05-05 18:22 31.92490 -107.59886 34846 ft 542 kts 96°
2026-05-05 18:23 31.92785 -107.51038 34845 ft 540 kts 96°
2026-05-05 18:23 31.93007 -107.42206 34842 ft 541 kts 97°
2026-05-05 18:24 31.93202 -107.33301 34842 ft 546 kts 97°
2026-05-05 18:24 31.93398 -107.24324 34842 ft 550 kts 97°
2026-05-05 18:25 31.93595 -107.15360 34834 ft 553 kts 97°
2026-05-05 18:25 31.93842 -107.06273 34821 ft 555 kts 97°
2026-05-05 18:26 31.94006 -106.97191 34834 ft 553 kts 97°
2026-05-05 18:26 31.94161 -106.88133 34836 ft 553 kts 97°
2026-05-05 18:26 31.94244 -106.83602 35010 ft 553 kts 97°
2026-05-05 18:27 31.94329 -106.79072 35029 ft 553 kts 97°
2026-05-05 18:27 31.94498 -106.70022 35031 ft 552 kts 97°
2026-05-05 18:28 31.94736 -106.56553 35006 ft 551 kts 97°
2026-05-05 18:28 31.94886 -106.47528 34992 ft 551 kts 97°
2026-05-05 18:29 31.95030 -106.38514 35005 ft 550 kts 97°
2026-05-05 18:29 31.95472 -106.29484 34972 ft 559 kts 85°
2026-05-05 18:30 31.97758 -106.20655 34926 ft 569 kts 65°
2026-05-05 18:30 32.01336 -106.12392 34886 ft 571 kts 63°
2026-05-05 18:31 32.05017 -106.04069 34851 ft 573 kts 64°
2026-05-05 18:31 32.08641 -105.95668 34835 ft 575 kts 64°
2026-05-05 18:32 32.12224 -105.87206 34844 ft 577 kts 65°
2026-05-05 18:32 32.15800 -105.78712 34870 ft 579 kts 65°
2026-05-05 18:33 32.19386 -105.70188 34843 ft 580 kts 65°
2026-05-05 18:33 32.22977 -105.61648 34805 ft 580 kts 65°
2026-05-05 18:34 32.26527 -105.53188 34825 ft 578 kts 65°
2026-05-05 18:34 32.30085 -105.44689 34822 ft 576 kts 65°
2026-05-05 18:35 32.33623 -105.36215 34832 ft 574 kts 65°
2026-05-05 18:35 32.37141 -105.27768 34786 ft 572 kts 64°
2026-05-05 18:36 32.40639 -105.19349 34817 ft 569 kts 64°
2026-05-05 18:36 32.44123 -105.10944 34829 ft 568 kts 65°
2026-05-05 18:37 32.47600 -105.02534 34801 ft 568 kts 65°
2026-05-05 18:37 32.51066 -104.94133 34804 ft 567 kts 65°
2026-05-05 18:38 32.54526 -104.85728 34798 ft 568 kts 65°
2026-05-05 18:38 32.57987 -104.77296 34810 ft 569 kts 65°
2026-05-05 18:39 32.61429 -104.68894 34822 ft 571 kts 65°
2026-05-05 18:39 32.64898 -104.60404 34859 ft 573 kts 65°
2026-05-05 18:40 32.68371 -104.51885 34887 ft 575 kts 65°
2026-05-05 18:40 32.71857 -104.43313 34908 ft 577 kts 65°
2026-05-05 18:41 32.75344 -104.34715 34905 ft 577 kts 65°